Preview of NWS' New Version of Forecast
This preview is not operational and should not be used for support decisions.

Regional Weather Roundup (RWR)

Issued by National Weather Service (NWS)

                            
000
ASUS46 KSEW 211110
RWRWA 

WASHINGTON REGIONAL WEATHER ROUNDUP
NATIONAL WEATHER SERVICE SEATTLE WA
400 AM PDT SAT SEP 21 2019

NOTE:"FAIR" INDICATES FEW OR NO CLOUDS BELOW 12,000 FEET WITH NO 
SIGNIFICANT WEATHER AND/OR OBSTRUCTIONS TO VISIBILITY.

WAZ507-509-555>559-211200-
SEATTLE, TACOMA, EVERETT, AND VICINITY
  
CITY           SKY/WX    TMP DP  RH WIND       PRES   REMARKS
EVERETT        CLOUDY    56  52  86 SE6       30.16S                  
BOEING FIELD   CLOUDY    59  54  83 SE7       30.16S                  
RENTON         CLOUDY    58  53  84 CALM      30.15F                  
SEATAC AIRPORT CLOUDY    58  54  86 S5        30.16S                  
JBLM-MCCHORD   CLOUDY    55  55 100 S3        30.16S                  
PUYALLUP       CLOUDY    57  57 100 CALM      30.16F                  
BREMERTON      FOG       55  55 100 CALM      30.16S VSB 3/4          
JBLM-FT LEWIS  PTCLDY    53  53 100 CALM      30.15F                  
TACOMA NARROWS CLOUDY    55  55 100 SW5       30.16F                  
$$
 
WAZ001-503-506-510-514-515-211200-
NORTH INTERIOR
  
CITY           SKY/WX    TMP DP  RH WIND       PRES   REMARKS
BELLINGHAM     MOCLDY    58  52  80 CALM      30.14S                  
FRIDAY HARBOR  CLEAR     50  48  93 CALM      30.15S FOG              
EASTSOUND      CLOUDY    57  54  88 SE3       30.13S                  
PORT ANGELES   CLEAR     51  50  96 S3        30.15S                  
EDIZ HOOK      PTSUNNY   55  53  91 CALM      30.14F                  
PORT TOWNSEND  CLOUDY    54  54 100 CALM      30.15S                  
NAS WHIDBEY    MOCLDY    58  52  80 CALM      30.19S                  
ARLINGTON      CLOUDY    53  51  93 CALM      30.16S                  
BURLINGTON     CLOUDY    54  54 100 CALM      30.16S                  
$$
 
WAZ020-022-039-040-504-511-512-211200-
SOUTHWEST INTERIOR
  
CITY           SKY/WX    TMP DP  RH WIND       PRES   REMARKS
SHELTON        CLOUDY    57  54  89 W6        30.14S                  
OLYMPIA        FOG       49  48  97 CALM      30.16S VSB 3/4          
CHEHALIS       FOG       54  54 100 CALM      30.17S VSB 3/4          
KELSO          CLOUDY    58  56  93 CALM      30.17S                  
VANCOUVER      CLEAR     54  51  90 CALM      30.16S                  
SCAPPOOSE, OR  CLEAR     49  49 100 CALM      30.15F FOG              
PORTLAND, OR   PTCLDY    55  53  93 W5        30.16F                  
$$
 
WAZ021-516-517-211200-
WASHINGTON COAST
  
CITY           SKY/WX    TMP DP  RH WIND       PRES   REMARKS
FORKS          CLOUDY    54  53  97 E5        30.14F                  
HOQUIAM        CLOUDY    56  56 100 CALM      30.16S                  
ASTORIA, OR    LGT RAIN  59  58  96 CALM      30.15S FOG              
$$
 
WAZ019-023-024-040-567>569-211200-
CASCADE MOUNTAINS AND COLUMBIA GORGE
  
CITY           SKY/WX    TMP DP  RH WIND       PRES   REMARKS
STAMPEDE PASS  NOT AVBL                                               
TROUTDALE, OR  MOCLDY    58  54  86 CALM      30.16S                  
HOOD RIVER, OR SUNNY     52  46  82 S3        30.13F                  
THE DALLES, OR CLEAR     60  52  74 NW9       30.10S                  
$$

WAZ026-027-041>044-520-521-211200-
EAST SLOPES
  
CITY           SKY/WX    TMP DP  RH WIND       PRES   REMARKS
OMAK           PTCLDY    47  41  80 N3        30.07S                  
WENATCHEE      CLEAR     57  44  62 NW10      30.08S                  
ELLENSBURG     CLEAR     57  44  62 NW14      30.09S                  
YAKIMA         CLEAR     45  39  79 W5        30.09S                  
SUNNYSIDE ARPT SUNNY     46  44  94 CALM      30.09S                  
YAKIMA TC      FAIR      53  43  69 E8        30.08S                  
$$

WAZ028-034-035-211200-
COLUMBIA BASIN
  
CITY           SKY/WX    TMP DP  RH WIND       PRES   REMARKS
EPHRATA        CLEAR     59  43  55 N10       30.04F                  
MOSES LAKE     CLEAR     52  45  77 CALM      30.06S                  
PASCO          CLEAR     49  46  90 CALM      30.09R                  
RICHLAND ARPT  SUNNY     57  49  76 S5        30.08S                  
HERMISTON, OR  CLEAR     54  46  74 S6        30.10S                  
$$

WAZ036>038-211200-
NORTHEAST WASHINGTON
  
CITY           SKY/WX    TMP DP  RH WIND       PRES   REMARKS
SPOKANE GEIGER MOCLDY    46  43  89 S7        30.06F                  
SPOKANE FELTS  CLEAR     48  45  89 N3        30.07S                  
FAIRCHILD AFB  NOT AVBL                                               
COEURDALENE,ID CLEAR     44  43  96 CALM      30.08S FOG              
DEER PARK      MOCLDY    39  38  96 NE3       30.07S FOG              
$$

WAZ029>033-211200-
SOUTHEAST WASHINGTON
  
CITY           SKY/WX    TMP DP  RH WIND       PRES   REMARKS
PULLMAN        CLOUDY    50  45  83 CALM      30.11S                  
LEWISTON, ID   LGT RAIN  56  51  84 N5        30.08S                  
WALLA WALLA    PTCLDY    56  46  69 S8        30.11R                  
PENDLETON, OR  CLEAR     50  45  83 S6        30.12S                  
$$